Location: Killam
(52.7910°N, 111.8608°W)
Time: 13:22:54
(UTC+00:00)

BlueWalker 3 - Pass Details

Date: 23 January 2026
Orbit: 450 x 461 km, 53.2° (Epoch: 11 February)

Event Time Altitude Azimuth Distance (km) Brightness Sun altitude
Rises 02:10:32 0° 221° (SW) 2,448 6.2 -20.1°
Reaches altitude 10° 02:12:48 10° 211° (SSW) 1,578 4.9 -20.4°
Enters shadow 02:15:13 28° 173° (S) 873 3.1 -20.8°
